ONEWEB-0294, 49083

Orbit data source: Space-Track

ONEWEB-0294, 49083 is a payload satellite owned by One Web (NAA) (UK) in LEO that was launched on Sat, 21 Aug 2021 UTC via a SOYUZ-2-1B launch vehicle from the Tyuratam Missile And Space Complex (TTMTR). Payload-class satellites include a variety of spacecraft equipped with specific instruments for various scientific and technological missions. These include communications satellites like Starlink; space stations such as the ISS; scientific satellites like the Hubble; Earth observation satellites from companies like Planet Labs, Umbra, and HawkEye 360; GPS; miniature CubeSats for education and research; and military/defense satellites.

Loading next visibility...
Identifier
49083, 2021-075J
Orbit
LEO
Country
Flag of UKUK
Related business
Manufacturer
One Web
Mission
Operational Commercial Communications
Bus & Motor
ARROW, Unknown motor
Mass
148 kg wet, ~140 kg dry
Launch date (UTC)
2021-08-21 (5 years ago)
Launch vehicle
SOYUZ-2-1B
Launch site
Tyuratam Missile And Space Complex (TTMTR)
Object type
Payload
Rocket body
Debris
Shape & HBR
Trap Box + 2 Pan, 6.7 m
Radar Cross Section
3.464 m², Large (>1 m²)

Expand to show TLE details & history
Last TLE update: 22 hours ago

TLE from 22 hours ago
0 ONEWEB-0294
1 49083U 21075J   26175.19182552 -.00000271  00000-0 -78855-3 0  9991
2 49083  87.8952 349.2657 0001967 101.5872 258.5478 13.12440553235498
Epoch: 2026-06-24T04:36Z
TLE epoch observation values (Epoch: 2026-06-24T04:36:13.724Z)
Latitude
0.00001°
Longitude
7.85594°
Altitude
1,216.92 km
Speed
7.246 km/s
True Right ascension
23h 17m 03s
True Declination
0° 00' 00"
Sunlit
Object was in daylight at epoch
Visualization orbit readout
Latitude
Unknown
Longitude
Unknown
Altitude
Unknown
Speed
Unknown
Apparent Right ascension
Unknown
Apparent Declination
Unknown
Sunlit
N/A
Visualization observer readout
Local Sidereal Time
13:55:11
Azimuth
Unknown
Elevation
Unknown
Doppler factor
Unknown
Orbital elements
Apogee altitude
1,212.342 km
Perigee altitude
1,209.357 km
Semi-major axis
7,588.986 km
Eccentricity
0.0002
Inclination
87.8952°
RAAN
349.2657°
Arg. of periapsis
101.5872°
True anomaly
258.52571°
Mean anomaly
258.5478°
Eccentric anomaly
258.53675°
Mean motion
3.28297 °/min
Orbital period
109.66 mins
BSTAR
-0.00078855
Loading maneuver chart data...
Computing Atmospheric mass density...
Loading historical data...
Loading historical data...
Loading historical data...
Loading historical data...
Loading historical data...
Loading historical data...
Loading historical data...

Documentation

Showing up to 5 results
|